FW5359 Weather Reports


time (UTC)temp
F
wind
direction
speed
knots
gust
knots
rain 1hr
in
rain 24hr
in
rain mn
in
humidity
%
barometer
mb
20260831125030 78 148 0.9 2.6 0.00 0.00 0.00 89 1017.6
20260831124524 78 148 0.9 2.6 0.00 0.00 0.00 89 1017.6
20260831124019 78 147 0.9 3.5 0.00 0.00 0.00 89 1017.5
20260831123513 78 213 0.9 3.5 0.00 0.00 0.00 88 1017.4
20260831123237 78 213 0.9 2.6 0.00 0.00 0.00 88 1017.4
20260831122501 78 213 0.9 2.6 0.00 0.00 0.00 88 1017.4
20260831121955 78 213 0.9 2.6 0.00 0.00 0.00 88 1017.3
20260831121449 78 213 0.9 3.5 0.00 0.00 0.00 88 1017.3
20260831120942 78 213 0.9 3.5 0.00 0.00 0.00 88 1017.4
20260831120436 78 213 0.9 3.5 0.00 0.00 0.00 88 1017.3
20260831120201 78 213 0.9 3.5 0.00 0.00 0.00 88 1017.3
20260831115425 78 213 0.9 2.6 0.00 0.00 0.00 88 1017.2
20260831114919 78 213 0.9 3.5 0.00 0.00 0.00 88 1017.3
20260831114413 78 215 0.9 3.5 0.00 0.00 0.00 88 1017.3
20260831113907 78 219 0.9 3.5 0.00 0.00 0.00 88 1017.3
20260831113401 78 221 0.0 3.5 0.00 0.00 0.00 88 1017.1
20260831112854 78 223 0.9 3.5 0.00 0.00 0.00 88 1017.2
20260831112348 78 223 0.9 3.5 0.00 0.00 0.00 87 1017.2
20260831111843 78 223 0.0 3.5 0.00 0.00 0.00 87 1017.3
20260831111609 78 224 0.9 4.3 0.00 0.00 0.00 87 1017.2
20260831110830 78 227 1.7 4.3 0.00 0.00 0.00 87 1017.3
20260831110324 78 194 0.9 4.3 0.00 0.00 0.00 87 1017.3
20260831110051 78 196 0.9 2.6 0.00 0.00 0.00 87 1017.2
20260831105312 78 196 0.9 2.6 0.00 0.00 0.00 87 1017.4
20260831104806 78 194 0.9 4.3 0.00 0.00 0.00 87 1017.3
20260831104300 78 195 1.7 6.1 0.00 0.00 0.00 86 1017.4
20260831103754 78 170 1.7 6.1 0.00 0.00 0.00 86 1017.4
20260831103249 78 222 1.7 6.1 0.00 0.00 0.00 86 1017.3
20260831102743 78 184 1.7 6.1 0.00 0.00 0.00 86 1017.4
20260831102237 78 165 1.7 6.1 0.00 0.00 0.00 86 1017.4
20260831102001 78 159 1.7 6.1 0.00 0.00 0.00 86 1017.4
20260831101225 78 192 1.7 6.1 0.00 0.00 0.00 86 1017.4
20260831100216 78 180 0.9 6.1 0.00 0.00 0.00 86 1017.4
20260831095714 78 179 1.7 6.1 0.00 0.00 0.00 86 1017.4
20260831095214 78 155 1.7 8.7 0.00 0.00 0.00 86 1017.4
20260831094714 78 169 1.7 8.7 0.00 0.00 0.00 86 1017.4
20260831094444 78 150 1.7 7.8 0.00 0.00 0.00 86 1017.4
20260831093714 78 226 1.7 7.0 0.00 0.00 0.00 86 1017.4
20260831093214 78 229 2.6 7.0 0.00 0.00 0.00 86 1017.3
20260831092714 78 194 1.7 7.8 0.00 0.00 0.00 86 1017.3
20260831092444 78 169 1.7 7.8 0.00 0.00 0.00 86 1017.3
20260831091717 78 197 1.7 7.8 0.00 0.00 0.00 86 1017.3
20260831091214 78 207 1.7 7.8 0.00 0.00 0.00 86 1017.3
20260831090714 78 162 1.7 6.1 0.00 0.00 0.00 86 1017.3
20260831090214 78 162 2.6 7.8 0.00 0.00 0.00 86 1017.3
20260831085714 78 164 1.7 7.8 0.00 0.00 0.00 86 1017.3
20260831085212 78 145 1.7 6.1 0.00 0.00 0.00 86 1017.3
20260831084710 78 225 1.7 6.1 0.00 0.00 0.00 86 1017.3
20260831084210 78 179 1.7 5.2 0.00 0.00 0.00 86 1017.4
20260831083706 78 179 1.7 5.2 0.00 0.00 0.00 86 1017.3
20260831083205 78 186 1.7 6.1 0.00 0.00 0.00 86 1017.3
20260831082705 78 233 1.7 6.1 0.00 0.00 0.00 86 1017.4
20260831082206 78 161 0.9 6.1 0.00 0.00 0.00 86 1017.4
20260831081706 78 167 0.9 6.1 0.00 0.00 0.00 86 1017.4
20260831081206 78 155 1.7 6.1 0.00 0.00 0.00 86 1017.4
20260831080706 78 274 1.7 6.1 0.00 0.00 0.00 86 1017.5
20260831080437 78 159 0.9 5.2 0.00 0.00 0.00 85 1017.4
20260831075705 78 159 0.9 5.2 0.00 0.00 0.00 85 1017.5
20260831075202 78 159 1.7 5.2 0.00 0.00 0.00 85 1017.5
20260831074702 78 159 1.7 5.2 0.00 0.00 0.00 85 1017.5
20260831074433 78 169 1.7 6.1 0.00 0.00 0.00 84 1017.5
20260831073702 78 171 1.7 6.1 0.00 0.00 0.00 84 1017.5
20260831073202 79 178 1.7 4.3 0.00 0.00 0.00 84 1017.5
20260831072933 79 168 1.7 5.2 0.00 0.00 0.00 83 1017.6
20260831072202 79 167 1.7 5.2 0.00 0.00 0.00 83 1017.6
20260831071933 79 165 1.7 5.2 0.00 0.00 0.00 83 1017.5
20260831071200 79 163 0.9 5.2 0.00 0.00 0.00 83 1017.6
20260831070701 79 164 0.9 5.2 0.00 0.00 0.00 82 1017.6
20260831070155 79 164 0.9 4.3 0.00 0.00 0.00 82 1017.5
20260831065649 79 163 0.9 8.7 0.00 0.00 0.00 82 1017.6
20260831065144 79 164 1.7 8.7 0.00 0.00 0.00 81 1017.6
20260831064638 79 153 1.7 7.0 0.00 0.00 0.00 81 1017.6
20260831064132 80 159 1.7 5.2 0.00 0.00 0.00 80 1017.6
20260831063625 80 178 1.7 5.2 0.00 0.00 0.00 80 1017.7
20260831063352 80 164 1.7 7.0 0.00 0.00 0.00 80 1017.6
20260831062613 80 159 1.7 7.0 0.00 0.00 0.00 79 1017.6
20260831062107 80 173 1.7 7.0 0.00 0.00 0.00 79 1017.5
20260831061601 80 171 0.9 7.0 0.00 0.00 0.00 79 1017.7
20260831061056 80 218 0.9 6.1 0.00 0.00 0.00 78 1017.5
20260831060044 80 144 0.9 7.0 0.00 0.00 0.00 77 1017.5
20260831055538 81 98 0.9 7.0 0.00 0.00 0.00 76 1017.5
20260831055031 81 154 1.7 5.2 0.00 0.00 0.00 76 1017.6
20260831054526 81 162 1.7 7.8 0.00 0.00 0.00 76 1017.6
20260831054250 81 157 1.7 7.8 0.00 0.00 0.00 75 1017.5
20260831053514 81 167 1.7 8.7 0.00 0.00 0.00 74 1017.4
20260831053007 82 144 2.6 8.7 0.00 0.00 0.00 73 1017.4
20260831052501 82 102 1.7 7.0 0.00 0.00 0.00 72 1017.3
20260831052227 82 158 1.7 7.8 0.00 0.00 0.00 72 1017.3
20260831051449 82 149 1.7 7.8 0.00 0.00 0.00 71 1017.2
20260831050437 82 165 0.9 5.2 0.00 0.00 0.00 69 1017.3
20260831045932 83 152 0.9 5.2 0.00 0.00 0.00 68 1017.3
20260831045430 83 151 1.7 6.1 0.00 0.00 0.00 68 1017.2
20260831044930 83 134 1.7 6.1 0.00 0.00 0.00 67 1017.1
20260831044429 83 116 1.7 8.7 0.00 0.00 0.00 67 1017.1
20260831044159 83 136 1.7 8.7 0.00 0.00 0.00 67 1017.1
20260831043427 84 159 2.6 8.7 0.00 0.00 0.00 66 1017.1
20260831042926 84 196 3.5 8.7 0.00 0.00 0.00 66 1017.2
20260831042427 84 174 2.6 8.7 0.00 0.00 0.00 66 1017.1
20260831042158 84 164 3.5 11.3 0.00 0.00 0.00 66 1017.0
20260831041426 84 168 3.5 11.3 0.00 0.00 0.00 66 1016.9
20260831041157 85 121 2.6 7.0 0.00 0.00 0.00 65 1017.0
20260831040426 85 74 1.7 7.8 0.00 0.00 0.00 64 1016.9
20260831035927 85 121 2.6 7.8 0.00 0.00 0.00 64 1016.7
20260831035427 85 144 2.6 7.0 0.00 0.00 0.00 64 1016.6
20260831034926 85 146 2.6 6.1 0.00 0.00 0.00 63 1016.6
20260831034426 85 123 1.7 7.8 0.00 0.00 0.00 63 1016.6
20260831033926 85 127 1.7 7.8 0.00 0.00 0.00 63 1016.6
20260831033427 86 128 1.7 5.2 0.00 0.00 0.00 63 1016.6
20260831032925 86 115 1.7 10.4 0.00 0.00 0.00 63 1016.5
20260831032420 86 182 2.6 10.4 0.00 0.00 0.00 63 1016.5
20260831031914 86 163 2.6 8.7 0.00 0.00 0.00 63 1016.5
20260831031407 86 125 2.6 6.1 0.00 0.00 0.00 63 1016.5
20260831030902 87 125 1.7 7.8 0.00 0.00 0.00 63 1016.3
20260831030635 87 165 1.7 7.8 0.00 0.00 0.00 63 1016.2
20260831025853 87 175 1.7 7.8 0.00 0.00 0.00 63 1016.2
20260831025353 87 176 1.7 7.8 0.00 0.00 0.00 63 1016.1
20260831024853 87 138 1.7 7.8 0.00 0.00 0.00 62 1016.0
20260831024352 87 133 1.7 5.2 0.00 0.00 0.00 63 1015.9
20260831023852 87 152 2.6 7.0 0.00 0.00 0.00 62 1015.8
20260831023351 88 167 2.6 8.7 0.00 0.00 0.00 62 1015.9
20260831022848 88 111 2.6 8.7 0.00 0.00 0.00 62 1015.7
20260831022349 88 105 1.7 7.8 0.00 0.00 0.00 62 1015.4
20260831021848 88 128 1.7 6.1 0.00 0.00 0.00 61 1015.3
20260831021347 88 131 1.7 6.1 0.00 0.00 0.00 61 1015.0
20260831020849 89 137 1.7 8.7 0.00 0.00 0.00 60 1015.0
20260831020346 89 185 1.7 8.7 0.00 0.00 0.00 60 1014.9
20260831015846 89 101 1.7 7.8 0.00 0.00 0.00 59 1014.9
20260831015618 89 154 1.7 7.0 0.00 0.00 0.00 59 1014.8
20260831014847 89 123 2.6 7.8 0.00 0.00 0.00 59 1014.8
20260831014345 89 128 2.6 7.8 0.00 0.00 0.00 58 1014.7
20260831013843 89 132 2.6 7.8 0.00 0.00 0.00 58 1014.6
20260831013338 89 157 1.7 7.0 0.00 0.00 0.00 57 1014.6
20260831012831 89 128 0.9 7.0 0.00 0.00 0.00 56 1014.4
20260831012327 89 107 0.0 3.5 0.00 0.00 0.00 54 1014.3
20260831011820 90 164 0.0 0.0 0.00 0.00 0.00 53 1014.3
20260831011314 90 164 0.0 0.0 0.00 0.00 0.00 53 1014.3
20260831010808 90 164 0.0 0.0 0.00 0.00 0.00 52 1014.3
20260831010303 91 164 0.0 0.0 0.00 0.00 0.00 52 1014.2
20260831005756 91 164 0.0 0.0 0.00 0.00 0.00 52 1014.2
20260831005250 91 164 0.0 0.0 0.00 0.00 0.00 51 1014.2
20260831004744 92 164 0.0 0.0 0.00 0.00 0.00 50 1014.1
20260831004238 92 164 0.0 0.9 0.00 0.00 0.00 50 1014.1
20260831003732 92 164 0.0 0.9 0.00 0.00 0.00 49 1014.0
20260831003226 92 164 0.0 4.3 0.00 0.00 0.00 49 1014.0
20260831002719 92 164 0.9 4.3 0.00 0.00 0.00 49 1014.0
20260831002214 93 164 0.9 4.3 0.00 0.00 0.00 48 1014.0
20260831001708 93 164 0.9 4.3 0.00 0.00 0.00 48 1014.0
20260831001432 93 165 0.9 6.1 0.00 0.00 0.00 47 1014.0
20260831000656 93 164 1.7 6.1 0.00 0.00 0.00 47 1014.0
20260831000150 94 132 1.7 4.3 0.00 0.00 0.00 46 1014.0
20260830235644 94 128 1.7 6.1 0.00 0.00 0.00 45 1014.0
20260830235138 94 162 1.7 6.1 0.00 0.00 0.00 46 1014.0
20260830234903 94 168 0.9 6.1 0.00 0.00 0.00 45 1014.1
20260830234125 94 128 1.7 7.8 0.00 0.00 0.00 46 1014.1
20260830233620 94 87 1.7 7.8 0.00 0.00 0.00 45 1014.2
20260830233114 94 146 1.7 7.8 0.00 0.00 0.00 45 1014.0
20260830232608 94 120 2.6 8.7 0.00 0.00 0.00 45 1014.1
20260830232334 95 136 1.7 8.7 0.00 0.00 0.00 45 1014.1
20260830231556 95 172 0.9 6.1 0.00 0.00 0.00 45 1014.1
20260830231049 95 146 0.9 4.3 0.00 0.00 0.00 47 1014.1
20260830230544 95 157 1.7 5.2 0.00 0.00 0.00 46 1014.1
20260830230038 95 100 2.6 6.1 0.00 0.00 0.00 46 1014.1
20260830225532 95 111 1.7 7.0 0.00 0.00 0.00 47 1014.2
20260830225025 95 104 1.7 7.0 0.00 0.00 0.00 47 1014.2
20260830224520 95 157 1.7 6.1 0.00 0.00 0.00 46 1014.3
20260830224014 95 153 2.6 6.1 0.00 0.00 0.00 45 1014.3
20260830223508 95 173 1.7 7.8 0.00 0.00 0.00 46 1014.3
20260830223002 95 113 2.6 7.8 0.00 0.00 0.00 46 1014.4
20260830222456 95 167 1.7 5.2 0.00 0.00 0.00 47 1014.5
20260830221949 95 134 2.6 6.1 0.00 0.00 0.00 48 1014.5
20260830221443 95 99 2.6 6.1 0.00 0.00 0.00 48 1014.5
20260830220943 94 121 1.7 7.0 0.00 0.00 0.00 49 1014.5
20260830220444 94 122 1.7 7.0 0.00 0.00 0.00 50 1014.4
20260830215944 94 190 1.7 7.8 0.00 0.00 0.00 51 1014.5
20260830215444 94 150 2.6 8.7 0.00 0.00 0.00 50 1014.6
20260830214943 95 111 2.6 8.7 0.00 0.00 0.00 48 1014.7
20260830214442 95 152 2.6 7.8 0.00 0.00 0.00 50 1014.7
20260830213942 95 97 1.7 7.0 0.00 0.00 0.00 49 1014.6
20260830213442 95 161 2.6 7.0 0.00 0.00 0.00 49 1014.8
20260830212942 95 127 2.6 7.8 0.00 0.00 0.00 49 1014.9
20260830212442 96 95 1.7 7.0 0.00 0.00 0.00 49 1014.8
20260830211938 96 153 1.7 7.0 0.00 0.00 0.00 49 1014.9
20260830211708 96 344 0.9 6.1 0.00 0.00 0.00 49 1014.9
20260830210938 95 142 0.9 6.1 0.00 0.00 0.00 50 1015.0
20260830210709 94 163 1.7 5.2 0.00 0.00 0.00 50 1015.2
20260830205938 93 116 1.7 6.1 0.00 0.00 0.00 50 1015.2
20260830205440 93 123 2.6 9.6 0.00 0.00 0.00 50 1015.4
20260830205212 93 103 1.7 9.6 0.00 0.00 0.00 51 1015.5
20260830204712 93 74 1.7 6.1 0.00 0.00 0.00 51 1015.5
20260830203941 94 138 2.6 8.7 0.00 0.00 0.00 50 1015.7
20260830202928 95 153 1.7 6.1 0.00 0.00 0.00 51 1015.8
20260830202422 95 187 1.7 8.7 0.00 0.00 0.00 50 1015.8
20260830201915 95 182 1.7 8.7 0.00 0.00 0.00 50 1016.1
20260830201414 95 230 1.7 7.8 0.00 0.00 0.00 49 1016.1
20260830200914 94 150 2.6 11.3 0.00 0.00 0.00 50 1016.2
20260830200644 94 246 1.7 11.3 0.00 0.00 0.00 51 1016.3
20260830200144 94 194 1.7 7.8 0.00 0.00 0.00 52 1016.5
20260830195414 94 94 1.7 6.1 0.00 0.00 0.00 51 1016.4
20260830194914 94 113 1.7 11.3 0.00 0.00 0.00 51 1016.6
20260830194413 94 82 1.7 11.3 0.00 0.00 0.00 51 1016.7
20260830193913 94 119 1.7 7.8 0.00 0.00 0.00 51 1016.8
20260830193413 94 213 1.7 7.8 0.00 0.00 0.00 51 1016.9
20260830192913 93 155 0.9 7.0 0.00 0.00 0.00 53 1016.9
20260830192413 93 113 0.9 6.1 0.00 0.00 0.00 53 1016.9
20260830191914 93 203 1.7 7.8 0.00 0.00 0.00 55 1017.0
20260830191413 92 147 1.7 7.8 0.00 0.00 0.00 56 1017.1
20260830190913 91 154 2.6 7.8 0.00 0.00 0.00 57 1017.3
20260830190413 91 101 2.6 6.1 0.00 0.00 0.00 56 1017.3
20260830185908 92 117 2.6 7.8 0.00 0.00 0.00 56 1017.4
20260830185633 92 224 1.7 7.8 0.00 0.00 0.00 56 1017.4
20260830184855 92 132 1.7 7.0 0.00 0.00 0.00 56 1017.4
20260830184349 91 92 1.7 7.0 0.00 0.00 0.00 57 1017.5
20260830183843 91 227 1.7 6.1 0.00 0.00 0.00 56 1017.5
20260830183336 91 122 1.7 6.1 0.00 0.00 0.00 56 1017.7
20260830182831 91 266 1.7 6.1 0.00 0.00 0.00 59 1017.8
20260830182324 90 146 1.7 6.1 0.00 0.00 0.00 60 1017.9
20260830181818 90 290 1.7 6.1 0.00 0.00 0.00 60 1017.9
20260830181544 91 288 2.6 7.0 0.00 0.00 0.00 58 1018.2
20260830180808 91 171 2.6 9.6 0.00 0.00 0.00 60 1018.3
20260830180301 91 170 1.7 9.6 0.00 0.00 0.00 59 1018.4
20260830175755 90 259 1.7 5.2 0.00 0.00 0.00 59 1018.5
20260830175520 91 261 1.7 5.2 0.00 0.00 0.00 60 1018.5
20260830174743 90 213 1.7 7.0 0.00 0.00 0.00 61 1018.5
20260830174237 90 176 2.6 8.7 0.00 0.00 0.00 62 1018.6
20260830174001 90 96 2.6 8.7 0.00 0.00 0.00 60 1018.6
20260830173225 90 184 1.7 7.8 0.00 0.00 0.00 60 1018.4
20260830172719 89 161 1.7 6.1 0.00 0.00 0.00 63 1018.6
20260830172213 89 138 1.7 6.1 0.00 0.00 0.00 64 1018.6
20260830171707 89 259 1.7 6.1 0.00 0.00 0.00 63 1018.7
20260830171201 89 134 0.9 6.1 0.00 0.00 0.00 64 1018.7
20260830170655 89 119 1.7 6.1 0.00 0.00 0.00 65 1018.7
20260830170149 89 114 2.6 7.0 0.00 0.00 0.00 65 1018.8
20260830165643 89 162 1.7 7.8 0.00 0.00 0.00 64 1018.9
20260830165137 89 144 0.9 7.8 0.00 0.00 0.00 66 1018.9
20260830164630 88 290 1.7 5.2 0.00 0.00 0.00 66 1018.9
20260830164125 88 159 1.7 6.1 0.00 0.00 0.00 66 1019.0
20260830163619 87 154 0.9 6.1 0.00 0.00 0.00 67 1019.0
20260830163343 87 209 0.9 4.3 0.00 0.00 0.00 69 1018.9
20260830162607 87 280 0.9 4.3 0.00 0.00 0.00 69 1018.9
20260830162101 87 261 0.9 3.5 0.00 0.00 0.00 70 1018.9
20260830161555 86 271 0.9 2.6 0.00 0.00 0.00 71 1018.9
20260830161319 85 279 0.9 3.5 0.00 0.00 0.00 73 1018.9
20260830160543 85 248 0.9 3.5 0.00 0.00 0.00 74 1018.9
20260830160037 84 244 0.9 4.3 0.00 0.00 0.00 74 1019.0
20260830155531 84 166 0.9 5.2 0.00 0.00 0.00 73 1019.0
20260830155024 85 157 1.7 7.0 0.00 0.00 0.00 73 1019.1
20260830154518 85 189 1.7 6.1 0.00 0.00 0.00 73 1019.2
20260830154012 85 169 1.7 6.1 0.00 0.00 0.00 74 1019.2
20260830153507 85 209 1.7 7.0 0.00 0.00 0.00 74 1019.1
20260830153001 84 237 1.7 7.0 0.00 0.00 0.00 74 1019.1
20260830152455 84 168 1.7 7.0 0.00 0.00 0.00 76 1019.0
20260830151949 83 214 1.7 7.0 0.00 0.00 0.00 76 1018.9
20260830151443 84 202 1.7 7.0 0.00 0.00 0.00 75 1019.0
20260830150937 84 239 0.9 7.0 0.00 0.00 0.00 76 1019.0
20260830150431 84 216 0.9 6.1 0.00 0.00 0.00 77 1018.9
20260830145924 83 194 0.9 3.5 0.00 0.00 0.00 78 1019.0
20260830145419 82 189 1.7 7.8 0.00 0.00 0.00 79 1019.0
20260830144915 82 269 1.7 7.8 0.00 0.00 0.00 80 1019.0
20260830144414 82 227 1.7 7.0 0.00 0.00 0.00 80 1019.0
20260830144147 81 221 0.9 6.1 0.00 0.00 0.00 82 1019.0
20260830143414 81 207 0.9 6.1 0.00 0.00 0.00 83 1019.0
20260830143145 80 266 0.9 3.5 0.00 0.00 0.00 83 1018.8
20260830142414 80 270 0.9 3.5 0.00 0.00 0.00 82 1018.8
20260830141914 80 167 0.9 3.5 0.00 0.00 0.00 83 1018.8
20260830141414 79 164 0.0 3.5 0.00 0.00 0.00 85 1018.9
20260830140914 79 164 0.9 3.5 0.00 0.00 0.00 86 1018.9
20260830140410 78 164 0.9 3.5 0.00 0.00 0.00 86 1018.9
20260830135911 78 165 0.0 3.5 0.00 0.00 0.00 87 1019.0
20260830135411 78 165 0.9 4.3 0.00 0.00 0.00 87 1018.9
20260830134911 78 163 0.9 4.3 0.00 0.00 0.00 87 1018.9
20260830134411 78 162 0.9 4.3 0.00 0.00 0.00 88 1018.8
20260830133911 77 162 0.9 4.3 0.00 0.00 0.00 88 1018.9
20260830133411 77 158 0.9 2.6 0.00 0.00 0.00 89 1018.8
20260830132410 77 156 0.0 2.6 0.00 0.00 0.00 89 1018.7
20260830131358 76 156 0.0 2.6 0.00 0.00 0.00 90 1018.6
20260830131122 76 156 0.0 1.7 0.00 0.00 0.00 90 1018.6
20260830130346 76 156 0.0 1.7 0.00 0.00 0.00 90 1018.5
20260830130113 76 156 0.0 2.6 0.00 0.00 0.00 90 1018.4
20260830125334 76 156 0.0 2.6 0.00 0.00 0.00 90 1018.3